Date String (YYYY-MM-DD hh:mm:ss) UTC,Instrument flags,absolute air pressure of the measurement (hPa),sample flow rate (lpm),inlet stack bypass flow (lpm),air temperature of the measurement (°C),ambient temperature measured by the external sensor (°C),aerosol sample conditioner tube jacket temperature (°C),OPC LED temperature (°C),internal box temperature (°C),relative humidity of the measurement (%),span deviation,mass concentration of particles derived from Lorenz-Mie calculation of OPC scattering (μg/m³),mass concentration of particles derived from Lorenz-Mie calculation of OPC scattering (μg/m³),mass concentration of particles derived from Lorenz-Mie calculation of OPC scattering (μg/m³)
DateTimeUTC,F1_M11,P_M11,Q1_M11,Q2_M11,T1_M11,T2_M11,T3_M11,T4_M11,T5_M11,U1_M11,ZSPAN_M11,X0_M11,X2_M11,X1_M11
2024-03-21 11:00:00,SystemResetWarning,0825.4,5.01,000.00,021.0,020.3,000.0,029.6,022.8,17.3,0004.7,0014.74,0006.52,0005.69
2024-03-21 11:01:00,SystemResetWarning,0825.4,5.01,000.00,021.0,020.3,000.0,029.6,022.8,17.3,0004.8,0014.55,0006.56,0005.68
2024-03-21 11:02:00,SystemResetWarning,0825.4,5.00,000.00,021.0,020.3,000.0,029.6,022.8,17.3,0002.1,0014.01,0006.56,0005.66
2024-03-21 11:03:00,SystemResetWarning,0825.4,4.99,000.00,021.0,020.3,000.0,029.6,022.8,17.3,0004.9,0013.78,0006.49,0005.66
2024-03-21 11:04:00,SystemResetWarning,0825.4,4.99,000.00,021.0,020.3,000.0,029.6,022.8,17.4,0004.8,0014.08,0006.51,0005.67
2024-03-21 11:05:00,SystemResetWarning,0825.4,5.00,000.00,021.0,020.3,000.0,029.6,022.8,17.4,0005.0,0015.30,0006.49,0005.68
2024-03-21 11:06:00,SystemResetWarning,0825.4,5.01,000.00,021.0,020.3,000.0,029.6,022.8,17.4,0004.9,0015.24,0006.49,0005.68
2024-03-21 11:07:00,SystemResetWarning,0825.4,5.00,000.00,021.0,020.2,000.0,029.6,022.8,17.4,0004.9,0014.28,0006.51,0005.67
2024-03-21 11:08:00,SystemResetWarning,0825.4,5.00,000.00,021.0,020.3,000.0,029.6,022.8,17.4,0005.1,0014.04,0006.52,0005.68
2024-03-21 11:09:00,SystemResetWarning,0825.4,5.00,000.00,021.0,020.3,000.0,029.6,022.8,17.4,0004.8,0013.45,0006.51,0005.70
2024-03-21 11:10:00,SystemResetWarning,0825.4,5.00,000.00,021.0,020.3,000.0,029.6,022.8,17.4,0003.2,0013.89,0006.50,0005.71
2024-03-21 11:11:00,SystemResetWarning,0825.4,5.00,000.00,021.0,020.3,000.0,029.6,022.8,17.4,0005.0,0014.07,0006.54,0005.72
2024-03-21 11:12:00,SystemResetWarning,0825.5,5.00,000.00,021.0,020.3,000.0,029.6,022.8,17.4,0004.6,0014.54,0006.55,0005.73
2024-03-21 11:13:00,SystemResetWarning,0825.4,5.00,000.00,021.0,020.3,000.0,029.6,022.8,17.5,0004.0,0014.57,0006.49,0005.74
2024-03-21 11:14:00,SystemResetWarning,0825.4,5.01,000.00,021.0,020.2,000.0,029.6,022.8,17.5,0003.9,0014.67,0006.53,0005.75
2024-03-21 11:15:00,SystemResetWarning,0825.4,5.00,000.00,021.0,020.2,000.0,029.6,022.8,17.5,0003.3,0014.92,0006.52,0005.75
2024-03-21 11:16:00,SystemResetWarning,0825.4,5.00,000.00,020.9,020.2,000.0,029.6,022.8,17.5,0003.3,0014.72,0006.51,0005.73
2024-03-21 11:17:00,SystemResetWarning,0825.4,5.00,000.00,020.9,020.1,000.0,029.6,022.7,17.5,0003.4,0015.43,0006.48,0005.70
2024-03-21 11:18:00,SystemResetWarning,0825.5,5.00,000.00,020.9,020.1,000.0,029.6,022.7,17.5,0002.6,0016.06,0006.47,0005.69
2024-03-21 11:19:00,SystemResetWarning,0825.5,5.00,000.00,020.9,020.0,000.0,029.5,022.7,17.6,0003.4,0016.66,0006.49,0005.70
2024-03-21 11:20:00,SystemResetWarning,0825.5,5.00,000.00,020.9,020.0,000.0,029.5,022.7,17.6,0003.9,0016.76,0006.47,0005.67
2024-03-21 11:21:00,SystemResetWarning,0825.5,5.00,000.00,020.9,020.0,000.0,029.5,022.7,17.7,0003.7,0016.75,0006.50,0005.68
2024-03-21 11:22:00,SystemResetWarning,0825.4,5.00,000.00,020.9,020.0,000.0,029.5,022.6,17.7,0003.3,0016.59,0006.52,0005.70
2024-03-21 11:23:00,SystemResetWarning,0825.4,5.00,000.00,020.9,020.0,000.0,029.5,022.6,17.7,0003.2,0016.26,0006.52,0005.70
2024-03-21 11:24:00,SystemResetWarning,0825.4,5.00,000.00,020.9,020.0,000.0,029.5,022.6,17.7,0003.7,0016.07,0006.63,0005.71
2024-03-21 11:25:00,SystemResetWarning,0825.4,5.00,000.00,020.9,020.0,000.0,029.5,022.6,17.7,0003.8,0016.09,0006.65,0005.71
2024-03-21 11:26:00,SystemResetWarning,0825.5,5.00,000.00,020.8,020.0,000.0,029.5,022.6,17.7,0004.1,0016.41,0006.69,0005.72
2024-03-21 11:27:00,SystemResetWarning,0825.5,5.01,000.00,020.8,020.0,000.0,029.5,022.6,17.7,0004.1,0015.56,0006.76,0005.75
2024-03-21 11:28:00,SystemResetWarning,0825.5,4.99,000.00,020.8,020.0,000.0,029.5,022.6,17.7,0004.0,0014.64,0006.80,0005.78
2024-03-21 11:29:00,SystemResetWarning,0825.5,5.00,000.00,020.8,020.0,000.0,029.5,022.6,17.7,0003.5,0015.30,0006.80,0005.79
2024-03-21 11:30:00,SystemResetWarning,0825.5,5.00,000.00,020.8,020.0,000.0,029.5,022.6,17.7,0003.7,0016.04,0006.86,0005.80
2024-03-21 11:31:00,SystemResetWarning,0825.5,5.00,000.00,020.8,020.0,000.0,029.5,022.6,17.7,0004.1,0015.98,0006.86,0005.82
2024-03-21 11:32:00,SystemResetWarning,0825.5,4.99,000.00,020.8,019.9,000.0,029.4,022.6,17.7,0004.0,0016.44,0006.85,0005.83
2024-03-21 11:33:00,SystemResetWarning,0825.5,5.00,000.00,020.8,019.9,000.0,029.4,022.6,17.7,0004.1,0016.11,0006.81,0005.81
2024-03-21 11:34:00,SystemResetWarning,0825.5,5.00,000.00,020.8,019.9,000.0,029.4,022.6,17.7,0004.5,0015.90,0006.79,0005.81
2024-03-21 11:35:00,SystemResetWarning,0825.5,5.00,000.00,020.8,019.9,000.0,029.4,022.6,17.7,0004.7,0016.08,0006.78,0005.79
2024-03-21 11:36:00,SystemResetWarning,0825.5,5.00,000.00,020.8,019.9,000.0,029.4,022.6,17.7,0004.4,0016.41,0006.78,0005.79
2024-03-21 11:37:00,SystemResetWarning,0825.5,5.01,000.00,020.8,019.9,000.0,029.4,022.5,17.7,0004.3,0016.73,0006.75,0005.77
2024-03-21 11:38:00,SystemResetWarning,0825.6,4.99,000.00,020.8,019.9,000.0,029.4,022.6,17.7,0004.5,0016.69,0006.66,0005.76
2024-03-21 11:39:00,SystemResetWarning,0825.6,4.99,000.00,020.8,019.9,000.0,029.4,022.6,17.7,0004.9,0016.73,0006.62,0005.75
2024-03-21 11:40:00,SystemResetWarning,0825.6,5.00,000.00,020.8,020.0,000.0,029.4,022.6,17.7,0005.3,0016.23,0006.60,0005.74
2024-03-21 11:41:00,SystemResetWarning,0825.6,5.01,000.00,020.7,020.0,000.0,029.4,022.5,17.7,0005.2,0015.47,0006.56,0005.74
2024-03-21 11:42:00,SystemResetWarning,0825.5,5.01,000.00,020.7,020.0,000.0,029.4,022.6,17.7,0004.9,0015.69,0006.54,0005.74
2024-03-21 11:43:00,SystemResetWarning,0825.5,4.99,000.00,020.7,020.0,000.0,029.4,022.6,17.7,0004.6,0016.02,0006.56,0005.74
2024-03-21 11:44:00,SystemResetWarning,0825.5,4.99,000.00,020.7,020.0,000.0,029.4,022.5,17.7,0004.5,0016.36,0006.65,0005.75
2024-03-21 11:45:00,SystemResetWarning,0825.5,4.99,000.00,020.7,020.0,000.0,029.4,022.5,17.7,0004.5,0017.07,0006.67,0005.75
2024-03-21 11:46:00,SystemResetWarning,0825.5,5.00,000.00,020.7,020.0,000.0,029.3,022.5,17.7,0004.6,0017.39,0006.66,0005.75
2024-03-21 11:47:00,SystemResetWarning,0825.6,5.00,000.00,020.7,020.0,000.0,029.3,022.5,17.7,0004.4,0017.30,0006.59,0005.75
2024-03-21 11:48:00,SystemResetWarning,0825.5,5.00,000.00,020.7,020.0,000.0,029.3,022.5,17.7,0004.7,0016.84,0006.58,0005.76
2024-03-21 11:49:00,SystemResetWarning,0825.6,5.01,000.00,020.7,020.0,000.0,029.3,022.5,17.7,0004.8,0017.05,0006.59,0005.78
2024-03-21 11:50:00,SystemResetWarning,0825.6,5.00,000.00,020.7,020.0,000.0,029.3,022.5,17.7,0004.6,0017.73,0006.59,0005.77
2024-03-21 11:51:00,SystemResetWarning,0825.6,5.00,000.00,020.7,020.0,000.0,029.3,022.5,17.6,0004.3,0016.89,0006.57,0005.77
2024-03-21 11:52:00,SystemResetWarning,0825.6,5.00,000.00,020.7,020.0,000.0,029.3,022.5,17.6,0003.6,0016.82,0006.57,0005.77
2024-03-21 11:53:00,SystemResetWarning,0825.6,4.99,000.00,020.7,020.0,000.0,029.3,022.5,17.6,0003.5,0016.57,0006.60,0005.76
2024-03-21 11:54:00,SystemResetWarning,0825.6,4.99,000.00,020.7,020.0,000.0,029.3,022.5,17.6,0003.6,0015.58,0006.59,0005.74
2024-03-21 11:55:00,SystemResetWarning,0825.6,5.00,000.00,020.7,020.0,000.0,029.3,022.5,17.6,0003.8,0015.16,0006.52,0005.72
2024-03-21 11:56:00,SystemResetWarning,0825.6,5.01,000.00,020.7,020.0,000.0,029.3,022.5,17.6,0003.6,0014.63,0006.48,0005.71
2024-03-21 11:57:00,SystemResetWarning,0825.6,5.01,000.00,020.7,020.0,000.0,029.3,022.5,17.6,0003.0,0014.35,0006.42,0005.70
2024-03-21 11:58:00,SystemResetWarning,0825.6,5.00,000.00,020.7,020.0,000.0,029.3,022.5,17.6,0003.2,0014.27,0006.39,0005.69
2024-03-21 11:59:00,SystemResetWarning,0825.5,5.00,000.00,020.7,019.9,000.0,029.3,022.5,17.6,0003.3,0013.94,0006.33,0005.66
